www.pogodaiklimat.ru

Погода и климат >> Архив погоды >> Россия >> Якутия >> Полярный


ПОГОДА в Полярном

  • Прогноз погоды в Полярном
  • Монитор погоды в Полярном

АРХИВ ПОГОДЫ в Полярном

Время (UTC), дата Ветер
(напр.,м/с)
 
Видим.   Явления Облачность Т
(С)
Тd
(С)
f
(%)
Тe
(С)
Тes
(С)
Комфортность P
(гПа)
Po
(гПа)
Тmin
(С)
Tmax
(С)
R
(мм)
R24
(мм)
S
(см)
06 13.09 З 5-12
{12}
50 км 10/8 1000 м
[St]
-2.3 -5.3 80 -9 -9 998.7 937.8
09 13.09 З 5-11
{12}
50 км 10/8 1000 м
[St]
-1.4 -6.1 70 -8 -8 998.8 938.2
12 13.09 З 6-12
{12}
20 км 10/8 750 м
[Sc Ac As]
-1.9 -5.7 75 -9 -9 999.1 938.4 -0.6 0.7
15 13.09 ЮЗ 4
{12}
2000 м снег 10/8 330 м
[Frnb As op]
-3.2 -3.6 97 -10 -10 997.6 936.7
18 13.09 ЮЗ 4
{10}
2000 м снег 10/8 270 м
[Frnb As op]
-3.3 -3.4 99 -10 -10 995.3 934.6
21 13.09 З 4 1000 м сильн. снег 10/8 180 м
[Frnb As op]
-3.4 -3.5 99 -10 -10 993.6 932.9
00 14.09 З 3 1000 м сильн. снег 10/8 150 м
[Frnb As op]
-2.9 -3.0 99 -8 -8 992.4 931.9 -3.4 16.4 9
03 14.09 С 4 2000 м снег 10/8 210 м
[Frnb As op]
-0.3 -0.3 100 -6 -6 991.8 931.9
06 14.09 СЗ 2 2000 м снег 10/8 210 м
[Frnb As op]
+0.4 +0.1 98 -3 -3 992.4 932.6
09 14.09 СВ 3 2000 м снег 10/8 210 м
[Frnb As op]
-0.1 -0.1 100 -5 -5 994.4 934.4
12 14.09 ЮВ 2 20 км слаб. снег 10/6 240 м
[Frnb As op]
-1.6 -1.8 99 -6 -6 997.4 936.9 +0.6 11
15 14.09 ЮВ 2 20 км слаб. снег 10/6 270 м
[Frnb As op Ci fib]
-4.8 -5.4 96 -9 -9 999.3 937.9
18 14.09 ЮВ 3 20 км слаб. снег 10/6 270 м
[Frnb As op Ci fib]
-6.9 -5.5 100 -13 -13 1001.3 939.4
21 14.09 ЮВ 2 20 км слаб. снег 10/6 300 м
[Frnb As op Ci fib]
-7.4 -7.6 98 -12 -12 1002.7 940.5
00 15.09 В 3 1000 м сильн. снег {туман} туман ?/? -8.3 -8.2 100 -14 -14 1003.4 941.0 -8.3 0.3 9
03 15.09 СВ 1 2000 м дымка {туман} 8/5 300 м
[St Ac trans Ci fib]
-4.6 -4.9 98 -7 -6 1003.2 941.7
06 15.09 СВ 2 50 км {туман} 10/5 600 м
[Sc Ac trans Ci fib]
-2.0 -3.8 87 -6 -5 1003.2 942.2
09 15.09 В 3 50 км в посл. час ливневой снег 10/6 450 м
[Cb cap Ac und]
-2.4 -3.6 91 -8 -8 1004.1 943.0
12 15.09 СВ 3 20 км {ливн. осадки} 8/5 600 м
[Sc Ac trans Ci fib]
-4.2 -5.1 93 -10 -10 1005.4 943.9 -1.8 0.3
15 15.09 нст 1 20 км 10/5 600 м
[Sc Ac und]
-5.2 -5.5 98 -8 -8 1005.5 943.6
18 15.09 СЗ 3 2000 м снег 10/8 240 м
[Frnb As op]
-6.4 -6.5 99 -12 -12 1004.3 942.3
21 15.09 СЗ 4 1000 м снег 10/8 180 м
[Frnb As op]
-5.2 -5.2 100 -12 -12 1001.8 940.2
00 16.09 З 4 500 м сильн. снег {туман} 10/10 60 м
[Frnb]
-3.8 -3.7 100 -10 -10 1001.1 939.9 -6.4 9 25
03 16.09 ЮЗ 2 500 м сильн. снег 10/10 90 м
[Frnb]
-1.6 -1.5 100 -6 -6 1002.0 941.2
06 16.09 ЮЗ 2 1000 м ливневой снег 10/8 210 м
[Cb cap Ac As]
-0.7 -0.8 99 -5 -5 1004.3 943.6
09 16.09 ЮЗ 2 2000 м дымка {ливн. осадки} 10/8 210 м
[Cb cap Ac As]
-0.6 -0.7 99 -5 -5 1007.1 946.2
12 16.09 ЮЗ 2 4000 м дымка {ливн. осадки} 10/8 300 м
[Cb cap Ac und]
-3.3 -3.7 97 -8 -8 1010.1 948.5 0.0 5
15 16.09 ЮЗ 3 20 км {ливн. осадки} 10/8 480 м
[Cb cap Ac und]
-2.2 -2.5 98 -8 -8 1011.2 949.8
18 16.09 З 3 20 км {ливн. осадки} 10/6 480 м
[St Ac und]
-3.9 -4.1 99 -9 -9 1013.2 951.2
21 16.09 ЮЗ 1 20 км 8/5 600 м
[Sc Ac trans Ci fib]
-6.3 -6.7 97 -9 -9 1015.3 952.6
00 17.09 Ю 1 50 км 8/5 600 м
[Sc Ac trans Ci fib]
-5.0 -6.3 91 -7 -7 1016.5 953.9 -5.1 0.0 30
03 17.09 Ю 1 50 км 8/5 600 м
[Sc Ac trans Ci fib]
-1.3 -4.6 78 -3 -2 1016.6 954.9
06 17.09 ЮВ 1 50 км 10/8 600 м
[Sc Ac trans]
0.0 -4.4 72 -2 -1 1017.0 955.6
09 17.09 Ю 1 50 км 8/5 600 м
[Sc Ac trans Ci fib]
+0.4 -3.9 73 -1 -1 1018.1 956.8
12 17.09 СВ 2 20 км 10/0
[Ac trans Ci fib]
-3.9 -7.1 78 -8 -8 1020.3 957.8 +1.0
15 17.09 СВ 2 20 км 10/0
[Ac trans Ci fib]
-5.6 -6.3 95 -10 -10 1020.8 958.0
18 17.09 СВ 3 20 км 10/0
[Ac trans Ci fib]
-6.6 -7.1 96 -12 -12 1021.3 958.2
21 17.09 СВ 3 20 км 10/0
[Ac trans Ci fib]
-8.5 -8.8 98 -14 -14 1021.7 958.2
00 18.09 СВ 2 50 км 8/0
[Ac trans Ci fib]
-6.5 -7.0 96 -11 -11 1021.3 958.2 -8.5 25
03 18.09 нст 1 50 км 10/0
[Ac trans Ci fib]
-2.0 -5.2 79 -4 -2 1019.5 957.5
06 18.09 нст 1 50 км 10/5 1000 м
[Sc Ac und]
-1.5 -5.1 76 -3 -3 1018.1 956.4
09 18.09 нст 1 50 км 9/5 1000 м
[Sc Ac trans]
-1.2 -5.2 74 -3 -3 1017.4 955.7
12 18.09 нст 1 20 км 8/5 1000 м
[Sc Ac trans Ci fib]
-4.1 -6.7 82 -6 -6 1017.2 954.9 -1.0
15 18.09 СЗ 1 20 км 8/5 1000 м
[Sc Ac trans Ci fib]
-5.4 -6.8 90 -8 -8 1016.5 953.9
18 18.09 СЗ 1 20 км 8/5 600 м
[Sc Ac trans Ci fib]
-7.3 -7.8 96 -10 -10 1016.4 953.4
21 18.09 З 2 20 км 8/5 600 м
[Sc Ac trans Ci fib]
-6.2 -6.6 97 -11 -11 1016.0 953.3
00 19.09 З 2 50 км 10/3 1000 м
[Sc Ac trans Ci fib]
-5.2 -5.9 95 -10 -9 1016.3 953.9 -7.2 24
03 19.09 З 3 50 км 8/0
[Ac trans Ci fib]
-1.7 -5.8 74 -6 -5 1015.7 954.1
06 19.09 З 2 50 км 8/0
[Ac trans Ci fib]
+1.7 -6.4 55 -1 +1 1015.1 954.2
09 19.09 З 2 50 км 6/0
[Ac trans Ci fib]
+2.3 -6.4 53 -0 0 1015.5 954.8
12 19.09 ЮЗ 2 20 км 8/0
[Ac trans Ci fib]
-1.8 -7.1 67 -5 -5 1017.0 955.2 +2.4
15 19.09 ЮЗ 2 20 км 8/0
[Ac trans Ci fib]
-3.0 -8.0 68 -7 -7 1016.7 954.6
18 19.09 Ю 2 20 км 8/0
[Ac trans Ci fib]
-2.5 -7.7 67 -6 -6 1015.4 953.6
21 19.09 Ю 3 20 км 6/0
[Ac trans Ci fib]
-2.9 -7.8 69 -8 -8 1014.6 952.6
00 20.09 Ю 2 50 км 6/0
[Ac trans Ci fib]
-2.7 -8.4 65 -6 -6 1013.1 951.3 -3.6 22

 

Местоположение метеостанции Полярный (Якутия, Россия): широта 66.73 долгота 112.40 высота над уровнем моря 501 м.

В архиве по умолчанию представлена погода в Полярном за последнюю неделю. Архивные данные за месяц целиком и за предыдущие месяцы, начиная с января 2011 года, Вы можете получить, выбрав интересующий диапазон дат из раскрывающегося списка и нажав кнопку "Ввод!".


*Определитесь, кто Вы:
робот инопланетянин человек

Внимание! Время в таблицах - всемирное. Для получения местного времени необходимо прибавить поправку, которая равна 9 ч.

Смотрите также архив погоды в соседних городах и на ближайших метеорологических станциях:

Погода в Шелагонцах (Якутия, Россия) (96 км)
Погода в Айхале (Якутия, Россия) (99 км)
Погода в Ярольине (Якутия, Россия) (176 км)
Погода в Оленеке (Якутия, Россия) (197 км)
Погода в Эйке (Якутия, Россия) (236 км)
Погода в Хабардино (Якутия, Россия) (237 км)
Погода в Сухане (Якутия, Россия) (326 км)
Погода в Чумпуруке (Якутия, Россия) (347 км)
Погода в Джалинде (Якутия, Россия) (383 км)
Погода в Чернышевском (Якутия, Россия) (412 км)

Пояснения к столбцам:

Ветер - указаны скорость ветра в м/с - средняя за 10 мин, порывы в срок и между сроками (в фигурных скобках) и направление, откуда дует ветер: С - северный, СВ - северо-восточный, В - восточный, ЮВ - юго-восточный, Ю - южный, ЮЗ - юго-западный, З - западный, СЗ - северо-западный.
Видимость - горизонтальная дальность видимости в метрах или километрах. При видимости от 1 до 10 км при отсутствии осадков обычно наблюдается дымка, при ухудшении видимости до 1 км и менее - туман. В сухую погоду видимость может ухудшаться дымом, пылью или мглою.
Явления - указаны атмосферные явления, наблюдавшиеся в срок или в последний час перед сроком; фигурными скобками обозначены явления, наблюдавшиеся между сроками (за 1-3 часа до срока); квадратными скобками обозначены град или гололедные отложения с указанием их диаметра в мм.
Облачность - указаны через наклонную черту общая и нижняя облачность в баллах и высота нижней границы облаков в метрах; квадратными скобками обозначены формы облаков: Ci - перистые, Cs - перисто-слоистые, Cc - перисто-кучевые, Ac - высококучевые, As - высокослоистые, Sc - слоисто-кучевые, Ns - слоисто-дождевые, Cu - кучевые, Cb - кучево-дождевые. Подробнее классификацию облаков см. в Атласе облаков (PDF).
T - Температура воздуха - температура, измеренная на высоте 2 м над землей.
Td - Температура точки росы - температура, при понижении до которой содержащийся в воздухе водяной пар достигнет насыщения.
f - Относительная влажность воздуха - влажноcть воздуха, измеренная на высоте 2 м над землей.
Te - Эффективная температура - температура, которую ощущает одетый по сезону человек в тени. Характеристика душности погоды. При расчете учитывается влияние влажности воздуха и скорости ветра на теплоощущения человека.
Tes - Эффективная температура на солнце - температура, которую ощущает человек, с поправкой на солнечный нагрев. Характеристика знойности погоды. Зависит от высоты солнца над горизонтом, облачности и скорости ветра. Ночью, в пасмурную погоду, а также при ветре 12 м/с и более поправка равна нулю.
P - Атмосферное давление - приведенное к уровню моря атмосферное давление.
Po - Атмосферное давление - измеренное на уровне метеостанции атмосферное давление.
Tmin - Минимальная температура - минимум температуры воздуха на высоте 2 м над землей.
Tmax - Максимальная температура - максимум температуры воздуха на высоте 2 м над землей.
R - Количество осадков - Количество выпавших осадков за период времени, мм. При наведении курсора мыши на число - период времени, за который выпало указанное количество осадков.
R24 - Количество осадков - Количество выпавших осадков за 24 часа, мм.
S - Снежный покров - Высота снежного покрова, см. При наведении курсора мыши на число - состояние снежного покрова и степень покрытия местности в баллах.